IK4PKL Weather Reports


time (UTC)temp
C
wind
direction
speed
KPH
gust
KPH
rain 1hr
cm
rain 24hr
cm
rain mn
cm
humidity
%
barometer
mb
20260508030506 12 339 4.8 11.3 0.00 0.00 0.00 91 1015.2
20260508030003 12 327 3.2 6.4 0.00 0.00 0.00 91 1015.2
20260508025503 12 295 1.6 6.4 0.00 0.00 0.00 91 1015.2
20260508025003 12 345 3.2 9.7 0.00 0.00 0.00 92 1015.2
20260508024713 12 357 1.6 9.7 0.00 0.00 0.00 92 1015.2
20260508024003 12 211 3.2 8.0 0.00 0.00 0.00 92 1015.3
20260508023503 12 244 3.2 8.0 0.00 0.00 0.00 92 1015.2
20260508023003 12 246 4.8 11.3 0.00 0.00 0.00 92 1015.3
20260508022503 12 282 6.4 16.1 0.00 0.00 0.00 92 1015.4
20260508022005 12 311 6.4 16.1 0.00 0.00 0.00 91 1015.5
20260508021503 12 320 6.4 16.1 0.00 0.00 0.00 91 1015.3
20260508021003 12 331 4.8 16.1 0.00 0.00 0.00 89 1015.5
20260508020503 12 333 3.2 11.3 0.00 0.00 0.00 89 1015.4
20260508020005 12 339 3.2 6.4 0.00 0.00 0.00 89 1015.5
20260508015503 12 179 3.2 9.7 0.00 0.00 0.00 90 1015.4
20260508015003 12 176 4.8 9.7 0.00 0.00 0.00 90 1015.5
20260508014505 12 134 3.2 8.0 0.00 0.00 0.00 89 1015.5
20260508014003 12 108 3.2 9.7 0.00 0.00 0.00 90 1015.3
20260508013713 12 31 4.8 9.7 0.00 0.00 0.00 89 1015.4
20260508013214 13 76 4.8 9.7 0.00 0.00 0.00 89 1015.4
20260508012504 13 152 1.6 9.7 0.00 0.00 0.00 90 1015.4
20260508012003 13 267 1.6 9.7 0.00 0.00 0.00 90 1015.6
20260508011504 13 252 3.2 9.7 0.00 0.00 0.00 90 1015.4
20260508011003 13 255 4.8 9.7 0.00 0.00 0.00 91 1015.6
20260508010503 13 273 4.8 12.9 0.00 0.00 0.00 91 1015.4
20260508010005 13 276 6.4 12.9 0.00 0.00 0.00 90 1015.5
20260508005715 13 278 6.4 12.9 0.00 0.00 0.00 90 1015.4
20260508005003 13 301 6.4 11.3 0.00 0.00 0.00 90 1015.4
20260508004503 13 302 4.8 11.3 0.00 0.00 0.00 89 1015.6
20260508004005 13 314 4.8 11.3 0.00 0.00 0.00 88 1015.3
20260508003503 13 311 4.8 14.5 0.00 0.00 0.00 88 1015.5
20260508003003 13 319 6.4 14.5 0.00 0.00 0.00 87 1015.7
20260508002712 13 324 4.8 9.7 0.00 0.00 0.00 86 1015.5
20260508002003 14 308 1.6 4.8 0.00 0.00 0.00 85 1015.6
20260508001503 15 309 0.0 3.2 0.00 0.00 0.00 83 1015.6
20260508001003 15 335 0.0 4.8 0.00 0.00 0.00 82 1015.8
20260508000503 15 353 1.6 4.8 0.00 0.00 0.00 82 1015.8
20260508000005 15 6 1.6 4.8 0.00 0.00 0.00 82 1015.7
20260507235714 15 335 0.0 4.8 0.00 0.00 0.00 81 1015.9
20260507235003 15 258 1.6 6.4 0.00 0.00 0.00 82 1016.0
20260507234503 15 85 3.2 6.4 0.00 0.00 0.00 80 1015.9
20260507234003 15 65 3.2 4.8 0.00 0.00 0.00 80 1015.8
20260507233503 15 79 3.2 4.8 0.00 0.00 0.00 81 1015.6
20260507233003 15 113 1.6 4.8 0.00 0.00 0.00 83 1015.6
20260507232503 15 132 0.0 3.2 0.00 0.00 0.00 84 1015.7
20260507232213 15 52 1.6 4.8 0.00 0.00 0.00 84 1015.8
20260507231503 15 59 1.6 4.8 0.00 0.00 0.00 82 1015.7
20260507231003 15 136 3.2 6.4 0.00 0.00 0.00 81 1015.9
20260507230714 15 154 3.2 6.4 0.00 0.00 0.00 82 1015.8
20260507225213 15 156 4.8 6.4 0.00 0.00 0.00 83 1016.0
20260507224505 15 85 3.2 6.4 0.00 0.00 0.00 84 1015.9
20260507224003 15 96 3.2 6.4 0.00 0.00 0.00 84 1015.9
20260507223714 15 85 3.2 6.4 0.00 0.00 0.00 84 1015.8
20260507223213 15 81 3.2 6.4 0.00 0.00 0.00 84 1016.0
20260507222714 15 79 1.6 4.8 0.00 0.00 0.00 84 1015.8
20260507222213 15 105 3.2 4.8 0.00 0.00 0.00 85 1015.7
20260507221505 15 129 4.8 8.0 0.00 0.00 0.00 85 1015.8
20260507221003 15 137 6.4 9.7 0.00 0.00 0.00 85 1015.6
20260507220503 15 129 6.4 9.7 0.00 0.00 0.00 85 1015.7
20260507220005 15 112 4.8 9.7 0.00 0.00 0.00 85 1015.6
20260507215505 15 127 4.8 8.0 0.00 0.00 0.00 85 1015.6
20260507215003 15 137 4.8 8.0 0.00 0.00 0.00 85 1015.7
20260507214503 15 138 4.8 8.0 0.00 0.00 0.00 84 1015.6
20260507214003 15 149 6.4 11.3 0.00 0.00 0.00 84 1015.6
20260507213715 15 149 8.0 12.9 0.00 0.00 0.00 84 1015.4
20260507213004 15 156 9.7 12.9 0.00 0.00 0.00 84 1015.7
20260507212503 15 159 8.0 12.9 0.00 0.00 0.00 84 1015.7
20260507212212 15 157 8.0 12.9 0.00 0.00 0.00 83 1015.6
20260507211503 15 151 6.4 9.7 0.00 0.00 0.00 83 1015.7
20260507211004 15 146 4.8 9.7 0.00 0.00 0.00 82 1015.5
20260507210503 16 117 3.2 6.4 0.00 0.00 0.00 81 1015.5
20260507210004 16 84 3.2 4.8 0.00 0.00 0.00 79 1015.6
20260507205503 16 105 3.2 6.4 0.00 0.00 0.00 79 1015.6
20260507205003 16 134 4.8 6.4 0.00 0.00 0.00 78 1015.5
20260507204505 16 91 3.2 6.4 0.00 0.00 0.00 77 1015.6
20260507204003 17 47 3.2 6.4 0.00 0.00 0.00 76 1015.8
20260507203713 17 145 3.2 6.4 0.00 0.00 0.00 76 1015.7
20260507203003 17 168 3.2 4.8 0.00 0.00 0.00 77 1015.9
20260507202503 17 109 1.6 6.4 0.00 0.00 0.00 75 1015.8
20260507202005 17 77 1.6 6.4 0.00 0.00 0.00 75 1015.8
20260507201503 17 93 1.6 6.4 0.00 0.00 0.00 75 1015.9
20260507201003 17 110 3.2 8.0 0.00 0.00 0.00 75 1015.6
20260507200503 17 123 4.8 9.7 0.00 0.00 0.00 74 1015.8
20260507200003 17 122 6.4 9.7 0.00 0.00 0.00 74 1015.9
20260507195503 17 118 6.4 9.7 0.00 0.00 0.00 73 1015.7
20260507195004 17 116 6.4 9.7 0.00 0.00 0.00 73 1015.8
20260507194503 17 110 4.8 9.7 0.00 0.00 0.00 73 1015.8
20260507194005 17 107 3.2 6.4 0.00 0.00 0.00 72 1015.9
20260507193503 17 117 3.2 6.4 0.00 0.00 0.00 72 1015.6
20260507193003 17 115 4.8 8.0 0.00 0.00 0.00 72 1015.6
20260507192503 17 117 4.8 11.3 0.00 0.00 0.00 72 1015.4
20260507192003 17 123 4.8 11.3 0.00 0.00 0.00 72 1015.6
20260507191503 18 110 4.8 11.3 0.00 0.00 0.00 71 1015.6
20260507191003 18 110 6.4 11.3 0.00 0.00 0.00 71 1015.3
20260507190504 17 126 6.4 11.3 0.00 0.00 0.00 71 1015.4
20260507190004 17 138 6.4 9.7 0.00 0.00 0.00 72 1015.5
20260507185504 18 150 6.4 9.7 0.00 0.00 0.00 71 1015.5
20260507185003 18 149 4.8 9.7 0.00 0.00 0.00 71 1015.3
20260507184712 18 148 4.8 9.7 0.00 0.00 0.00 71 1015.3
20260507184003 18 144 3.2 6.4 0.00 0.00 0.00 72 1015.3
20260507183503 18 159 3.2 6.4 0.00 0.00 0.00 72 1015.3
20260507183213 18 162 3.2 6.4 0.00 0.00 0.00 72 1015.2
20260507182504 18 157 4.8 8.0 0.00 0.00 0.00 72 1015.1
20260507182003 18 137 6.4 9.7 0.00 0.00 0.00 72 1015.1
20260507181503 18 113 4.8 12.9 0.00 0.00 0.00 71 1015.2
20260507181005 18 111 6.4 14.5 0.00 0.00 0.00 71 1015.1
20260507180714 18 115 8.0 19.3 0.00 0.00 0.00 71 1015.0
20260507180003 18 139 12.9 24.1 0.00 0.00 0.00 71 1014.9
20260507175714 18 139 16.1 25.7 0.00 0.00 0.00 71 1014.6
20260507175004 18 133 17.7 25.7 0.00 0.00 0.00 71 1014.8
20260507174504 18 132 16.1 25.7 0.00 0.00 0.00 72 1014.7
20260507174003 18 127 12.9 25.7 0.00 0.00 0.00 74 1014.7
20260507173503 18 122 12.9 29.0 0.00 0.00 0.00 74 1014.6
20260507173005 18 118 14.5 29.0 0.00 0.00 0.00 75 1014.5
20260507172714 18 117 16.1 29.0 0.00 0.00 0.00 75 1014.5
20260507172005 18 116 16.1 33.8 0.00 0.00 0.00 77 1014.6
20260507171714 18 117 16.1 33.8 0.00 0.00 0.00 78 1014.6
20260507171003 18 113 17.7 33.8 0.00 0.00 0.00 79 1014.6
20260507170505 18 115 16.1 32.2 0.00 0.00 0.00 80 1014.4
20260507170003 18 114 14.5 33.8 0.00 0.00 0.00 80 1014.5
20260507165504 18 116 17.7 33.8 0.00 0.00 0.00 79 1014.7
20260507165003 18 125 14.5 27.4 0.00 0.00 0.00 79 1014.8
20260507164503 18 123 9.7 25.7 0.00 0.00 0.00 76 1014.6
20260507164003 18 107 11.3 27.4 0.00 0.00 0.00 74 1014.6
20260507163503 18 106 14.5 27.4 0.00 0.00 0.00 73 1014.4
20260507163003 18 106 11.3 25.7 0.00 0.00 0.00 72 1014.5
20260507162716 19 91 9.7 25.7 0.00 0.00 0.00 69 1014.6
20260507162003 19 78 8.0 19.3 0.00 0.00 0.00 64 1014.7
20260507161713 18 82 8.0 22.5 0.00 0.00 0.00 64 1014.7
20260507161212 18 80 9.7 22.5 0.00 0.00 0.00 64 1014.8
20260507160504 18 83 9.7 24.1 0.00 0.00 0.00 59 1014.6
20260507160003 18 95 9.7 24.1 0.00 0.00 0.00 57 1014.5
20260507155505 18 103 8.0 20.9 0.00 0.00 0.00 58 1014.6
20260507155003 18 94 9.7 20.9 0.00 0.00 0.00 60 1015.0
20260507154503 18 84 11.3 20.9 0.00 0.00 0.00 58 1014.7
20260507154212 18 84 9.7 17.7 0.00 0.00 0.00 61 1014.8
20260507153504 18 67 9.7 22.5 0.00 0.00 0.00 59 1014.9
20260507153003 18 71 11.3 22.5 0.00 0.00 0.00 56 1014.8
20260507152503 18 70 11.3 22.5 0.00 0.00 0.00 58 1014.7
20260507152003 18 69 11.3 20.9 0.00 0.00 0.00 54 1014.9
20260507151503 19 76 9.7 25.7 0.00 0.00 0.00 52 1014.7
20260507151003 18 80 12.9 25.7 0.00 0.00 0.00 52 1014.8
20260507150503 18 81 12.9 25.7 0.00 0.00 0.00 52 1014.8
20260507150005 18 75 12.9 24.1 0.00 0.00 0.00 49 1014.8
20260507145503 18 68 11.3 24.1 0.00 0.00 0.00 52 1014.8
20260507145003 18 70 16.1 25.7 0.00 0.00 0.00 50 1014.8
20260507144505 18 71 16.1 25.7 0.00 0.00 0.00 51 1014.9
20260507144004 18 70 11.3 22.5 0.00 0.00 0.00 55 1014.9
20260507143503 18 64 8.0 19.3 0.00 0.00 0.00 58 1014.7
20260507143214 19 65 8.0 19.3 0.00 0.00 0.00 59 1014.9
20260507142505 18 70 11.3 22.5 0.00 0.00 0.00 59 1015.0
20260507142003 18 66 11.3 22.5 0.00 0.00 0.00 56 1015.0
20260507141713 18 70 12.9 20.9 0.00 0.00 0.00 57 1014.9
20260507141003 18 67 11.3 25.7 0.00 0.00 0.00 54 1015.0
20260507140503 18 71 12.9 25.7 0.00 0.00 0.00 57 1015.0
20260507140003 18 76 12.9 22.5 0.00 0.00 0.00 52 1014.9
20260507135503 18 65 12.9 22.5 0.00 0.00 0.00 56 1014.9
20260507135003 18 60 12.9 24.1 0.00 0.00 0.00 58 1015.1
20260507134503 18 68 14.5 24.1 0.00 0.00 0.00 54 1015.0
20260507134214 18 70 12.9 20.9 0.00 0.00 0.00 56 1015.0
20260507133503 18 65 12.9 24.1 0.00 0.00 0.00 57 1015.0
20260507133003 18 67 12.9 22.5 0.00 0.00 0.00 54 1015.1
20260507132503 18 63 12.9 25.7 0.00 0.00 0.00 54 1014.9
20260507132003 18 51 11.3 25.7 0.00 0.00 0.00 55 1014.9
20260507131503 18 48 9.7 25.7 0.00 0.00 0.00 56 1015.0
20260507131005 18 54 11.3 25.7 0.00 0.00 0.00 59 1015.0
20260507130505 18 51 12.9 27.4 0.00 0.00 0.00 57 1015.0
20260507130004 18 59 12.9 27.4 0.00 0.00 0.00 58 1015.1
20260507125503 18 59 11.3 25.7 0.00 0.00 0.00 54 1014.9
20260507125005 18 55 12.9 27.4 0.00 0.00 0.00 57 1014.9
20260507124503 18 60 11.3 27.4 0.00 0.00 0.00 58 1015.0
20260507124003 18 57 11.3 27.4 0.00 0.00 0.00 58 1015.0
20260507123503 18 57 12.9 27.4 0.00 0.00 0.00 58 1015.0
20260507123004 18 56 11.3 24.1 0.00 0.00 0.00 58 1015.1
20260507122503 18 60 9.7 20.9 0.00 0.00 0.00 54 1015.1
20260507122005 19 57 11.3 20.9 0.00 0.00 0.00 50 1014.9
20260507121714 19 52 11.3 20.9 0.00 0.00 0.00 53 1014.9
20260507121003 19 49 11.3 20.9 0.00 0.00 0.00 52 1015.1
20260507120503 18 62 14.5 20.9 0.00 0.00 0.00 51 1015.1
20260507120004 18 63 14.5 22.5 0.00 0.00 0.00 51 1015.0
20260507115503 18 47 14.5 25.7 0.00 0.00 0.00 52 1015.1
20260507115213 18 41 14.5 25.7 0.00 0.00 0.00 52 1015.0
20260507114503 18 65 11.3 20.9 0.00 0.00 0.00 52 1015.1
20260507114003 18 61 9.7 20.9 0.00 0.00 0.00 53 1015.1
20260507113505 19 54 9.7 20.9 0.00 0.00 0.00 53 1015.2
20260507113003 18 45 9.7 24.1 0.00 0.00 0.00 52 1015.0
20260507112503 18 46 9.7 24.1 0.00 0.00 0.00 51 1015.3
20260507112003 18 49 11.3 22.5 0.00 0.00 0.00 54 1015.4
20260507111713 18 40 12.9 24.1 0.00 0.00 0.00 54 1015.3
20260507111003 18 35 11.3 24.1 0.00 0.00 0.00 51 1015.2
20260507110505 18 50 14.5 24.1 0.00 0.00 0.00 52 1015.4
20260507110214 18 57 14.5 25.7 0.00 0.00 0.00 54 1015.5
20260507105503 18 58 16.1 29.0 0.00 0.00 0.00 58 1015.4
20260507105003 18 53 12.9 24.1 0.00 0.00 0.00 55 1015.5
20260507104504 19 45 11.3 25.7 0.00 0.00 0.00 53 1015.3
20260507104003 19 31 9.7 25.7 0.00 0.00 0.00 53 1015.1
20260507103503 19 32 9.7 22.5 0.00 0.00 0.00 53 1015.4
20260507103003 19 33 11.3 27.4 0.00 0.00 0.00 53 1015.3
20260507102713 19 30 14.5 27.4 0.00 0.00 0.00 53 1015.2
20260507102003 20 24 11.3 27.4 0.00 0.00 0.00 52 1015.3
20260507101503 20 17 8.0 20.9 0.00 0.00 0.00 51 1015.3
20260507101003 20 10 9.7 20.9 0.00 0.00 0.00 50 1015.5
20260507100503 19 15 11.3 22.5 0.00 0.00 0.00 52 1015.3
20260507100004 19 13 12.9 24.1 0.00 0.00 0.00 53 1015.5
20260507095713 19 1 12.9 25.7 0.00 0.00 0.00 51 1015.4
20260507095214 19 344 11.3 25.7 0.00 0.00 0.00 53 1015.4
20260507094715 19 344 9.7 24.1 0.00 0.00 0.00 52 1015.3
20260507094214 19 348 11.3 22.5 0.00 0.00 0.00 54 1015.4
20260507093505 19 357 9.7 22.5 0.00 0.00 0.00 54 1015.4
20260507093003 19 3 8.0 17.7 0.00 0.00 0.00 54 1015.4
20260507092715 19 4 9.7 19.3 0.00 0.00 0.00 54 1015.2
20260507092003 18 356 11.3 19.3 0.00 0.00 0.00 56 1015.3
20260507091505 19 10 11.3 19.3 0.00 0.00 0.00 55 1015.1
20260507091214 18 7 11.3 20.9 0.00 0.00 0.00 56 1015.3
20260507090503 18 14 11.3 24.1 0.00 0.00 0.00 58 1015.2
20260507090004 18 24 9.7 24.1 0.00 0.00 0.00 57 1015.3
20260507085505 18 11 9.7 24.1 0.00 0.00 0.00 57 1015.3
20260507085214 18 9 12.9 25.7 0.00 0.00 0.00 58 1015.3
20260507084713 18 11 14.5 25.7 0.00 0.00 0.00 60 1015.3
20260507084005 18 22 11.3 25.7 0.00 0.00 0.00 61 1015.4
20260507083713 18 20 11.3 25.7 0.00 0.00 0.00 61 1015.2
20260507083004 17 16 11.3 29.0 0.00 0.00 0.00 67 1015.3
20260507082503 18 18 9.7 22.5 0.00 0.00 0.00 63 1015.2
20260507082004 18 14 9.7 22.5 0.00 0.00 0.00 68 1015.0
20260507081714 18 7 9.7 22.5 0.00 0.00 0.00 66 1014.9
20260507081003 20 321 8.0 16.1 0.00 0.00 0.00 52 1014.9
20260507080503 19 296 9.7 20.9 0.00 0.00 0.00 52 1014.6
20260507080004 19 296 11.3 20.9 0.00 0.00 0.00 52 1014.8
20260507075714 19 297 11.3 20.9 0.00 0.00 0.00 54 1014.6
20260507075003 19 295 11.3 20.9 0.00 0.00 0.00 55 1014.6
20260507074504 18 303 11.3 17.7 0.00 0.00 0.00 56 1014.7
20260507074003 18 302 9.7 17.7 0.00 0.00 0.00 57 1014.5
20260507073503 18 317 8.0 17.7 0.00 0.00 0.00 56 1014.6
20260507073005 18 317 6.4 14.5 0.00 0.00 0.00 57 1014.8
20260507072503 18 328 6.4 12.9 0.00 0.00 0.00 57 1014.8
20260507072003 18 341 4.8 12.9 0.00 0.03 0.00 61 1014.7
20260507071503 18 305 1.6 8.0 0.00 0.03 0.00 59 1014.6
20260507071213 18 304 3.2 8.0 0.00 0.03 0.00 59 1014.9
20260507070714 19 307 3.2 8.0 0.00 0.03 0.00 58 1014.7
20260507070007 19 291 1.6 4.8 0.00 0.03 0.00 58 1014.8
20260507065503 19 296 1.6 4.8 0.00 0.03 0.00 60 1014.8
20260507065003 18 30 3.2 8.0 0.00 0.03 0.00 64 1014.7
20260507064503 18 53 4.8 9.7 0.00 0.03 0.00 67 1014.8
20260507064004 17 70 4.8 9.7 0.00 0.03 0.00 70 1014.9
20260507063716 17 69 4.8 9.7 0.00 0.03 0.00 72 1014.7
20260507063005 16 52 4.8 9.7 0.00 0.03 0.00 74 1014.8
20260507062503 17 29 4.8 9.7 0.00 0.03 0.00 75 1014.7
20260507062003 17 2 4.8 9.7 0.00 0.03 0.00 75 1014.7
20260507061503 17 340 4.8 9.7 0.00 0.03 0.00 76 1014.7
20260507061003 17 333 3.2 9.7 0.00 0.03 0.00 76 1014.8
20260507060503 16 356 3.2 9.7 0.00 0.03 0.00 76 1014.8
20260507060003 16 116 4.8 12.9 0.00 0.03 0.00 80 1014.6
20260507055503 15 122 6.4 12.9 0.00 0.03 0.00 83 1014.6
20260507055003 16 121 4.8 12.9 0.00 0.03 0.00 81 1014.7
20260507054503 16 193 4.8 12.9 0.00 0.03 0.00 81 1014.7
20260507054003 15 228 8.0 16.1 0.00 0.03 0.00 80 1014.4
20260507053504 15 232 9.7 16.1 0.00 0.03 0.00 82 1014.3
20260507053003 15 237 8.0 14.5 0.00 0.03 0.00 84 1014.4
20260507052505 15 264 6.4 14.5 0.00 0.03 0.00 86 1014.2
20260507052005 15 297 4.8 11.3 0.00 0.03 0.00 87 1014.5
20260507051715 15 309 4.8 11.3 0.00 0.03 0.00 86 1014.3
20260507051003 15 305 3.2 8.0 0.00 0.03 0.00 86 1014.1
20260507050503 15 359 1.6 6.4 0.00 0.03 0.00 85 1014.4
20260507050003 15 8 3.2 6.4 0.00 0.03 0.00 85 1014.3
20260507045504 15 344 3.2 8.0 0.00 0.03 0.00 86 1013.9
20260507045214 15 343 4.8 9.7 0.00 0.03 0.00 86 1014.0
20260507044506 16 309 3.2 9.7 0.00 0.05 0.00 86 1013.8
20260507044004 15 195 3.2 9.7 0.00 0.08 0.00 85 1013.8
20260507043713 15 172 4.8 11.3 0.00 0.08 0.00 85 1013.6
20260507043005 15 170 9.7 14.5 0.00 0.10 0.00 87 1013.6
20260507042503 15 172 9.7 14.5 0.00 0.10 0.00 87 1013.6
20260507042003 15 169 9.7 14.5 0.00 0.13 0.00 87 1013.9
20260507041503 15 166 9.7 14.5 0.00 0.13 0.00 87 1013.8
20260507041003 15 166 9.7 16.1 0.00 0.13 0.00 86 1013.7
20260507040713 15 166 9.7 16.1 0.00 0.13 0.00 86 1013.6
20260507040008 15 159 8.0 16.1 0.00 0.13 0.00 86 1013.5
20260507035713 15 152 8.0 12.9 0.00 0.13 0.00 86 1013.5
20260507035004 15 148 8.0 12.9 0.00 0.13 0.00 85 1013.5
20260507034503 15 168 8.0 14.5 0.00 0.13 0.00 85 1013.4
20260507034003 15 166 8.0 14.5 0.00 0.13 0.00 85 1013.3
20260507033504 15 155 9.7 14.5 0.00 0.13 0.00 88 1013.4
20260507033003 15 160 11.3 16.1 0.00 0.13 0.00 88 1013.4
20260507032503 15 160 11.3 16.1 0.00 0.13 0.00 88 1013.6
20260507032004 15 156 9.7 16.1 0.00 0.13 0.00 88 1013.4
20260507031713 15 160 9.7 16.1 0.00 0.13 0.00 88 1013.5
20260507031003 15 158 9.7 16.1 0.00 0.13 0.00 87 1013.6
20260507030713 15 155 8.0 16.1 0.00 0.13 0.00 86 1013.4